[[{"header":{"parameterUnit":"m.s-1","parameterCategory":1,"la1":30.2991,"la2":30.254,"lo1":-89.0895,"lo2":-89.0444,"dy":0.0017,"dx":0.0017,"nx":28,"ny":28,"refTime":"2024-05-28T21:00:00:Z","depth":0,"parameterNumber":2,"parameterNumberName":"U-component_of_WINDS"},"data":[0,0,0,0,0,0,0,0,0,0,0,0,0,0,0,0,0,0,0,0,0,0,0,0,0,0,0,0,0,0,0,0,0,0,0,0,0,0,0,0,0,0,0,0,0,0,0,0,0,0,0,0,0,0,0,0,0,0,-2.4339,-2.4338,0,-2.4286,-2.4285,-2.4284,-2.4244,-2.4243,-2.4243,-2.4243,-2.4187,-2.4186,-2.4185,0,0,0,0,0,0,0,0,0,0,0,0,0,-2.4406,-2.4405,-2.4339,-2.4338,-2.4337,-2.4286,-2.4285,-2.4284,-2.4244,-2.4243,-2.4243,-2.4243,-2.4187,-2.4186,-2.4185,0,0,0,0,0,0,0,0,0,0,0,0,0,-2.4367,-2.4405,-2.4339,-2.4311,-2.4308,-2.4286,-2.4285,-2.4284,-2.4244,-2.4243,-2.4243,-2.4242,-2.4188,-2.4186,-2.4185,-2.4185,0,0,-2.4179,-2.4179,0,0,0,0,0,0,0,0,-2.437,-2.4365,-2.4316,-2.4313,-2.431,-2.4271,-2.4288,-2.4251,-2.4244,-2.4268,-2.4243,-2.4242,-2.4215,-2.4211,-2.4202,-2.4183,-2.418,-2.4179,-2.4178,-2.4177,-2.4177,0,0,0,0,0,0,0,-2.4372,-2.4367,-2.4318,-2.4315,-2.4311,-2.4302,-2.4295,-2.4281,-2.4246,-2.4266,-2.4263,-2.4257,-2.4213,-2.4204,-2.4201,-2.4179,-2.4179,-2.4178,-2.4177,-2.4176,-2.416,-2.416,0,0,0,0,0,0,-2.4379,-2.4369,-2.4319,-2.4316,-2.4339,-2.4301,-2.4294,-2.4284,-2.4246,-2.4239,-2.4258,-2.4256,-2.4207,-2.4203,-2.4199,-2.4198,-2.4177,-2.4176,-2.4175,-2.4159,-2.416,-2.416,0,0,0,0,0,0,-2.4381,-2.4375,-2.4322,-2.4342,-2.4334,-2.43,-2.4289,-2.4283,-2.4274,-2.4239,-2.4233,-2.4255,-2.4207,-2.4201,-2.4189,-2.4195,-2.4175,-2.4173,-2.4158,-2.4159,-2.416,-2.4195,0,0,0,0,0,0,-2.4383,-2.4376,-2.4375,-2.4342,-2.4333,-2.4313,-2.429,-2.4282,-2.4271,-2.4268,-2.4235,-2.4229,-2.4206,-2.4192,-2.4188,-2.4192,-2.4172,-2.4158,-2.4159,-2.416,-2.4193,-2.4197,-2.42,0,0,0,0,0,-2.4386,-2.4387,-2.4376,-2.437,-2.4332,-2.4313,-2.4308,-2.4282,-2.4272,-2.4271,-2.425,-2.423,-2.4196,-2.4191,-2.4186,-2.419,-2.4157,-2.4158,-2.416,-2.4191,-2.4196,-2.42,0,0,0,0,0,0,-2.442,-2.4382,-2.4369,-2.4359,-2.434,-2.4306,-2.4304,-2.4287,-2.427,-2.4267,-2.4236,-2.4229,-2.4221,-2.4204,-2.42,-2.419,-2.4174,-2.4174,-2.42,-2.4204,-2.4208,-2.4211,-2.4171,0,0,0,0,0,-2.4427,-2.4415,-2.4382,-2.4377,-2.4368,-2.4338,-2.4329,-2.4311,-2.4289,-2.428,-2.4258,-2.4238,-2.4223,-2.4213,-2.4197,-2.4192,-2.4184,-2.4192,-2.4196,-2.4199,-2.4199,-2.4196,-2.4199,-2.4165,-2.4165,-2.4165,0,0,-2.444,-2.4417,-2.4411,-2.4383,-2.4366,-2.4354,-2.4331,-2.4319,-2.431,-2.4278,-2.4266,-2.4249,-2.4225,-2.4217,-2.4212,-2.4203,-2.4208,-2.4201,-2.4203,-2.4201,-2.4198,-2.4201,-2.4204,-2.4166,-2.4165,-2.4165,0,0,-2.4457,-2.4439,-2.4433,-2.4418,-2.4393,-2.4373,-2.4373,-2.4342,-2.433,-2.4317,-2.4294,-2.4284,-2.4258,-2.4242,-2.423,-2.4246,-2.4228,-2.4242,-2.426,-2.4257,-2.426,-2.4262,-2.4268,-2.427,-2.4243,-2.4243,-2.4243,0,-2.4476,-2.4458,-2.4432,-2.4423,-2.4411,-2.4384,-2.4378,-2.4364,-2.4335,-2.4328,-2.4319,-2.4288,-2.4269,-2.4257,-2.4262,-2.4254,-2.4252,-2.4244,-2.4262,-2.4264,-2.4266,-2.4271,-2.4273,-2.4245,-2.4245,-2.4244,-2.4244,0,-2.4482,-2.447,-2.4469,-2.4443,-2.4432,-2.4424,-2.4398,-2.439,-2.4374,-2.4357,-2.4345,-2.4323,-2.4303,-2.4299,-2.4283,-2.4286,-2.4281,-2.4268,-2.4251,-2.4271,-2.4275,-2.4277,-2.4247,-2.4247,-2.4246,-2.4246,0,0,-2.4516,-2.4479,-2.4479,-2.4467,-2.444,-2.443,-2.4422,-2.4404,-2.4397,-2.438,-2.4372,-2.4353,-2.4341,-2.4328,-2.4311,-2.4309,-2.4324,-2.4296,-2.4295,-2.4301,-2.4326,-2.4335,-2.4338,-2.4313,-2.4313,-2.4314,-2.4328,0,-2.4529,-2.4513,-2.4491,-2.4483,-2.4472,-2.4448,-2.4441,-2.4424,-2.4408,-2.4397,-2.438,-2.4367,-2.4352,-2.4344,-2.4342,-2.4323,-2.4328,-2.4322,-2.4305,-2.4305,-2.431,-2.434,-2.4349,-2.4364,-2.433,-2.433,-2.433,0,-2.454,-2.4525,-2.4515,-2.449,-2.4485,-2.4479,-2.4462,-2.4451,-2.4432,-2.4421,-2.4409,-2.4391,-2.4382,-2.4369,-2.4358,-2.4354,-2.4346,-2.4337,-2.4337,-2.4332,-2.4317,-2.4335,-2.4368,-2.4369,-2.4332,-2.4332,-2.4332,0,-2.4565,-2.4542,-2.4534,-2.4525,-2.4496,-2.4493,-2.4481,-2.4461,-2.4452,-2.4437,-2.4431,-2.4416,-2.4407,-2.4395,-2.4374,-2.4366,-2.4365,-2.435,-2.4355,-2.4356,-2.4353,-2.4353,-2.4384,-2.4352,-2.4352,-2.4352,-2.4352,0,-2.458,-2.4575,-2.4545,-2.4539,-2.4534,-2.4511,-2.4506,-2.4492,-2.4475,-2.4467,-2.4446,-2.4439,-2.4413,-2.4403,-2.4387,-2.438,-2.4376,-2.4367,-2.4362,-2.4367,-2.4368,-2.436,-2.4358,-2.4353,-2.4352,-2.4352,-2.4352,0,-2.4605,-2.4585,-2.4574,-2.4549,-2.4543,-2.454,-2.4518,-2.4513,-2.4498,-2.4488,-2.4485,-2.446,-2.4448,-2.4427,-2.4408,-2.4397,-2.4393,-2.4386,-2.4399,-2.4396,-2.4403,-2.4402,-2.4427,-2.4429,-2.4398,-2.4398,-2.4399,0,-2.4615,-2.4611,-2.4586,-2.458,-2.4568,-2.4558,-2.4549,-2.4528,-2.452,-2.4499,-2.4497,-2.4483,-2.4471,-2.4453,-2.4433,-2.442,-2.4411,-2.4422,-2.4409,-2.4415,-2.441,-2.441,-2.441,-2.4423,-2.4424,-2.4424,-2.4425,0,-2.4634,-2.4626,-2.4614,-2.4599,-2.459,-2.4577,-2.4564,-2.456,-2.4535,-2.4528,-2.4515,-2.4506,-2.4488,-2.4475,-2.446,-2.4447,-2.4432,-2.4429,-2.443,-2.4434,-2.4441,-2.4437,-2.4406,-2.4428,-2.4428,-2.4427,-2.4427,-2.4427,-2.4651,-2.4647,-2.463,-2.4618,-2.4606,-2.4595,-2.4589,-2.4574,-2.4563,-2.4547,-2.4536,-2.4524,-2.4508,-2.4485,-2.4475,-2.4466,-2.4459,-2.4459,-2.4459,-2.4459,-2.4461,-2.4445,-2.4463,-2.4463,-2.4463,-2.4463,-2.4463,0,-2.4669,-2.4658,-2.4647,-2.463,-2.4621,-2.4609,-2.4595,-2.4588,-2.4578,-2.4565,-2.4554,-2.4541,-2.4529,-2.4511,-2.4497,-2.4494,-2.4487,-2.4491,-2.449,-2.4488,-2.4469,-2.4469,-2.4498,-2.4498,-2.4498,-2.4498,-2.4498,-2.4498,-2.4677,-2.4669,-2.4659,-2.4646,-2.4635,-2.4624,-2.4616,-2.4606,-2.4595,-2.4582,-2.4572,-2.4561,-2.4545,-2.4532,-2.4521,-2.4516,-2.4511,-2.4518,-2.451,-2.4492,-2.4489,-2.4486,-2.4486,-2.4517,-2.4517,-2.453,-2.453,-2.453]},{"header":{"parameterUnit":"m.s-1","parameterCategory":1,"la1":30.2991,"la2":30.254,"lo1":-89.0895,"lo2":-89.0444,"dy":0.0017,"dx":0.0017,"nx":28,"ny":28,"refTime":"2024-05-28T21:00:00:Z","depth":0,"parameterNumber":3,"parameterNumberName":"V-component_of_WINDS"},"data":[0,0,0,0,0,0,0,0,0,0,0,0,0,0,0,0,0,0,0,0,0,0,0,0,0,0,0,0,0,0,0,0,0,0,0,0,0,0,0,0,0,0,0,0,0,0,0,0,0,0,0,0,0,0,0,0,0,0,2.6613,2.6613,0,2.6574,2.6574,2.6573,2.6631,2.6633,2.6635,2.6637,2.659,2.6587,2.6584,0,0,0,0,0,0,0,0,0,0,0,0,0,2.6733,2.673,2.6613,2.6613,2.6612,2.6574,2.6574,2.6573,2.663,2.6633,2.6635,2.6638,2.6591,2.6588,2.6584,0,0,0,0,0,0,0,0,0,0,0,0,0,2.6686,2.6729,2.6613,2.6636,2.6638,2.6574,2.6574,2.6573,2.663,2.6633,2.6636,2.6639,2.6593,2.6588,2.6583,2.6493,0,0,2.6569,2.6567,0,0,0,0,0,0,0,0,2.6688,2.6681,2.6633,2.6635,2.6636,2.6611,2.6599,2.6546,2.6629,2.6633,2.6637,2.664,2.6594,2.6589,2.6575,2.6491,2.6489,2.6569,2.6566,2.6564,2.6562,0,0,0,0,0,0,0,2.6692,2.6683,2.6597,2.6633,2.6634,2.6647,2.6644,2.6589,2.6596,2.6633,2.6637,2.6632,2.6595,2.658,2.6575,2.6488,2.6569,2.6564,2.6562,2.656,2.633,2.6326,0,0,0,0,0,0,2.6693,2.6686,2.6599,2.6596,2.6671,2.6643,2.6639,2.6616,2.6597,2.6598,2.6629,2.6635,2.6586,2.658,2.6573,2.6467,2.6564,2.6559,2.6557,2.6333,2.6329,2.6325,0,0,0,0,0,0,2.6695,2.6684,2.66,2.6642,2.6632,2.6637,2.6611,2.6613,2.6598,2.6595,2.6596,2.6612,2.6588,2.658,2.6513,2.6466,2.6557,2.6553,2.6337,2.6332,2.6327,2.6253,0,0,0,0,0,0,2.6698,2.6685,2.6651,2.6641,2.663,2.6542,2.6608,2.661,2.659,2.6597,2.6579,2.6579,2.659,2.652,2.6509,2.6461,2.6549,2.6341,2.6334,2.6329,2.6259,2.6246,2.6234,0,0,0,0,0,2.6702,2.663,2.6649,2.6639,2.6588,2.6539,2.6533,2.6549,2.6586,2.6552,2.6551,2.6579,2.6474,2.6513,2.65,2.6451,2.6344,2.6336,2.6329,2.6265,2.6249,2.6235,0,0,0,0,0,0,2.6632,2.6629,2.665,2.6573,2.6556,2.6549,2.6506,2.6531,2.6501,2.6508,2.6528,2.6524,2.6453,2.6446,2.6489,2.6363,2.6415,2.6404,2.637,2.6355,2.6342,2.6345,2.6545,0,0,0,0,0,2.6608,2.657,2.6569,2.6501,2.6492,2.65,2.6479,2.6494,2.6477,2.6469,2.6463,2.6443,2.6406,2.638,2.6345,2.626,2.6256,2.622,2.6207,2.6197,2.6187,2.6142,2.6125,2.6301,2.6301,2.6301,0,0,2.6557,2.6551,2.6525,2.6487,2.6475,2.6434,2.6494,2.6447,2.6416,2.6461,2.6399,2.6394,2.6373,2.6297,2.6263,2.6288,2.6138,2.6187,2.6179,2.6175,2.6132,2.6116,2.6101,2.6296,2.6297,2.6298,0,0,2.6442,2.6434,2.6377,2.6366,2.6349,2.6356,2.6343,2.6332,2.6331,2.627,2.6303,2.6266,2.6201,2.6185,2.6169,2.6052,2.6077,2.6041,2.5974,2.593,2.5916,2.5903,2.5861,2.5846,2.6031,2.6031,2.6031,0,2.638,2.6321,2.6344,2.6296,2.6278,2.6321,2.6262,2.6249,2.6221,2.6207,2.6237,2.6158,2.6147,2.6068,2.604,2.6026,2.601,2.6041,2.5916,2.5904,2.5893,2.5853,2.5837,2.6027,2.6027,2.6028,2.6028,0,2.6245,2.6204,2.616,2.6135,2.6112,2.6059,2.6073,2.6047,2.6065,2.6068,2.6005,2.5994,2.5959,2.5942,2.5957,2.5865,2.5882,2.5914,2.5965,2.5872,2.5834,2.5819,2.602,2.6022,2.6023,2.6024,0,0,2.6082,2.6073,2.6056,2.6046,2.6032,2.6,2.5949,2.5917,2.5895,2.5875,2.5832,2.5778,2.5808,2.5789,2.5804,2.5765,2.5673,2.5802,2.5802,2.5777,2.5571,2.5546,2.5528,2.5692,2.5689,2.5686,2.5573,0,2.5967,2.5882,2.5903,2.5817,2.5779,2.5821,2.5777,2.5763,2.5765,2.5733,2.5735,2.5696,2.574,2.5729,2.5693,2.5692,2.5632,2.5701,2.565,2.5648,2.5652,2.5509,2.5481,2.5374,2.5558,2.5556,2.5554,0,2.5822,2.5799,2.5711,2.5705,2.569,2.565,2.5623,2.5592,2.5578,2.5582,2.5563,2.5586,2.5535,2.559,2.5519,2.5566,2.5546,2.5543,2.554,2.5534,2.5594,2.5497,2.5341,2.5324,2.5532,2.5533,2.5535,0,2.571,2.5658,2.5599,2.5589,2.5581,2.5552,2.5547,2.5536,2.5516,2.5493,2.548,2.5449,2.5432,2.5408,2.5422,2.546,2.5348,2.5404,2.535,2.5349,2.5322,2.5323,2.5158,2.5312,2.5313,2.5313,2.5313,0,2.5579,2.5523,2.5549,2.5512,2.5451,2.5476,2.5414,2.5413,2.5404,2.5367,2.5401,2.5365,2.5386,2.5352,2.5362,2.5302,2.5294,2.5296,2.5299,2.5292,2.5291,2.5277,2.5285,2.5309,2.531,2.531,2.5311,0,2.5443,2.5459,2.5397,2.5396,2.5395,2.5349,2.5348,2.5313,2.532,2.5273,2.5263,2.5273,2.5235,2.5247,2.5205,2.5212,2.5136,2.5149,2.5141,2.5144,2.5088,2.5093,2.4907,2.4884,2.5054,2.5053,2.5051,0,2.5358,2.5316,2.5312,2.5291,2.5285,2.525,2.5231,2.5255,2.5233,2.5215,2.5182,2.5148,2.5121,2.5058,2.506,2.5028,2.504,2.4978,2.5035,2.503,2.5038,2.5039,2.5035,2.4965,2.4963,2.4961,2.496,0,2.5204,2.5215,2.5187,2.5162,2.5139,2.512,2.5104,2.5084,2.5107,2.5081,2.5044,2.5023,2.4983,2.4947,2.4919,2.4913,2.4939,2.4943,2.4928,2.4919,2.4916,2.4916,2.5108,2.4946,2.4947,2.4948,2.4949,2.495,2.509,2.5055,2.5048,2.5016,2.5007,2.4992,2.496,2.4965,2.4935,2.4905,2.4921,2.4877,2.4865,2.4831,2.4821,2.4787,2.481,2.479,2.4784,2.4778,2.4771,2.4924,2.4782,2.4782,2.4783,2.4783,2.4783,0,2.4937,2.4936,2.4907,2.4884,2.4859,2.4891,2.4875,2.4851,2.4814,2.4802,2.4776,2.4734,2.4701,2.4702,2.4671,2.4643,2.4655,2.4634,2.4635,2.4633,2.4751,2.4767,2.4625,2.4625,2.4625,2.4625,2.4625,2.4625,2.4855,2.4798,2.4808,2.4748,2.4746,2.4706,2.4694,2.468,2.4671,2.4623,2.4597,2.4599,2.4592,2.4561,2.4532,2.4533,2.4519,2.4494,2.4499,2.4609,2.4625,2.464,2.4654,2.4491,2.4491,2.4384,2.4383,2.4382]}]]